Вернуться в каталог

FENGYUN 1C DEB

LostPO
NORAD 36248·DEBRIS·🇨🇳 China

Запущен May 10, 1999 с Taiyuan Satellite Launch Center

Loading…

Ближайшие Пролёты (ближайшие 24 часа)

TLE

УстаревшееSource: Space-Track

Эпоха: Apr 10, 2024, 18:52 UTC

1 36248U 99025DVZ 24101.78674947  .00003892  00000-0  25661-2 0  9992
2 36248  98.1587  41.5732 0196483 125.3191 236.6519 13.93239102775888

Отслеживайте FENGYUN 1C DEB в реальном времени с AllMySat

Download on the App Store